Regional Weather Roundup
Issued by NWS

Home | Current Version | Previous Version | Text Only | Print | Product List | Glossary Off
Versions: 1 2 3 4 5 6 7 8 9 10 11 12 13 14 15 16 17 18 19 20 21 22 23 24 25 26 27 28 29 30 31 32 33 34 35 36 37 38 39 40 41 42 43 44 45 46 47 48 49 50

000
ASUS44 KMEG 180110
RWRTN
TENNESSEE HOURLY STATE WEATHER ROUNDUP
NATIONAL WEATHER SERVICE MEMPHIS TN
800 PM CDT WED SEP 17 2014

TNZ002-004-019-021-049-052-054-088>092-180200-
WEST TENNESSEE

CITY           SKY/WX    TMP DP  RH WIND       PRES   REMARKS
MEMPHIS INTL   CLOUDY    72  63  73 SE3       29.91R
NWS MEMPHIS      N/A     68 N/A N/A MISG        N/A
JACKSON        MOCLDY    64  61  90 CALM      29.95R
DYERSBURG      PTCLDY    63  52  67 E3        29.96S
UNION CITY     CLEAR     59  57  94 CALM      29.95R
PARIS          MOCLDY    61  57  88 CALM      29.97R
HUNTINGDON     MOCLDY    60  57  89 CALM      29.96R
LEXINGTON      CLEAR     64  61  88 CALM      29.94F
SAVANNAH       CLEAR     63  57  82 E6        29.94F
$$

TNZ008-025-027-028-033-062-065-066-180200-
NORTH MIDDLE TENNESSEE

CITY           SKY/WX    TMP DP  RH WIND       PRES   REMARKS
NASHVILLE      CLOUDY    65  58  78 CALM      29.97R
DICKSON        MOCLDY    63  57  82 CALM      29.97F
PORTLAND       PTCLDY    59  55  88 CALM      29.98R
CLARKSVILLE    CLOUDY    65  57  75 S5        29.98R
LEBANON        MOCLDY    62  57  83 CALM      29.96R
SMYRNA         MOCLDY    62  57  83 CALM      29.98R
MURFREESBORO   MOCLDY    66  55  67 CALM      29.96R
COOKEVILLE     CLEAR     63  57  82 SE3       29.95S
LIVINGSTON     PTCLDY    60  53  77 SE7       29.95F
GALLATIN       MOCLDY    65  58  78 CALM      29.98R
CROSSVILLE     PTCLDY    60  55  83 CALM      30.01S
$$

TNZ061-075-076-078-094-096-097-180200-
SOUTH MIDDLE TENNESSEE

CITY           SKY/WX    TMP DP  RH WIND       PRES   REMARKS
LEWISBURG      MOCLDY    65  60  83 CALM      29.98R
FAYETTEVILLE   CLEAR     66  55  68 NW3G14    29.98R
TULLAHOMA      CLEAR     63  57  82 W5        29.99R
WINCHESTER     CLEAR     66  55  68 CALM      29.97R
MCMINNVILLE    CLEAR     63  61  94 CALM      29.96R
COLUMBIA       CLEAR     66  63  88 CALM      29.96F
SHELBYVILLE    CLEAR     64  59  82 W3        29.99R
$$

TNZ017-018-042-046-047-180200-
NORTHEAST TENNESSEE

CITY           SKY/WX    TMP DP  RH WIND       PRES   REMARKS
TRI CITIES     PTCLDY    62  54  74 CALM      29.98R
ELIZABETHTON   CLEAR     57  54  88 CALM      29.99R
$$

TNZ012-013-036-069-073-074-180200-
CENTRAL EAST TENNESSEE

CITY           SKY/WX    TMP DP  RH WIND       PRES   REMARKS
KNOXVILLE      PTCLDY    66  57  72 SW6       29.96R
OAK RIDGE      PTCLDY    65  58  78 CALM      29.99R
GATLINBURG     CLEAR     63  57  82 CALM      29.97R
MORRISTOWN     CLEAR     63  57  82 CALM      29.99R
$$

TNZ083-085-099-180200-
SOUTHEAST TENNESSEE

CITY           SKY/WX    TMP DP  RH WIND       PRES   REMARKS
CHATTANOOGA    MOCLDY    70  55  59 NE6       29.96S
$$

SKY/WX REPORTED AS FAIR MEANS FEW OR NO CLOUDS BELOW
12 THOUSAND FEET.



USA.gov is the U.S. government's official web portal to all federal, state and local government web resources and services.